User: anonymous   Login
Location: Bishop's University Astronomical Observatory
(45.3661°N, 71.8475°W)
Time: 18:35:18
(UTC-04:00)
Language:

Meteor 2-5 Rocket - Orbit

View from above orbital plane
View from above orbital plane
View from above satellite
View from above satellite

Ground track
Ground track

The orbit data is extracted from the following two-line orbital elements,

1 11608U 79095B   18113.91072802 -.00000002  00000-0 -85311-5 0  9996
2 11608  81.2126 269.4742 0054289  11.0460 349.1886 14.06133024973745
Epoch (UTC): 23 April 2018 21:51:26
Eccentricity: 0.0054289
inclination: 81.2126°
perigee height: 833 km
apogee height: 912 km
right ascension of ascending node: 269.4742°
argument of perigee: 11.0460°
revolutions per day: 14.06133024
mean anomaly at epoch: 349.1886°
orbit number at epoch: 97374

The dashed part of the orbit path shows where the satellite is in the earth's shadow,  

DLR